Location: Rodson Ranch
(38.7188°N, 119.3202°W)
Time: 17:27:34
(UTC+00:00)

H-2A R/B - Pass Details

Date: 29 October 2020
Orbit: 528 x 652 km, 98.3° (Epoch: 23 November)

Event Time Altitude Azimuth Distance (km) Brightness Sun altitude
Rises 13:34:10 0° 16° (NNE) 2,918 6.1 -9.8°
Reaches altitude 10° 13:36:26 10° 21° (NNE) 1,989 5.3 -9.4°
Maximum altitude 13:40:42 60° 101° (E) 693 3.2 -8.6°
Drops below altitude 10° 13:44:47 10° 181° (S) 1,899 5.2 -7.8°
Sets 13:46:54 0° 185° (S) 2,773 6.0 -7.4°
